SYN001 KRDU-KCLT

Flight info

Callsign SYN001
Flight time 0h 37m
Altitude 20000
Route CATAR SDAIL CHSLY6
Aircraft BCS3/M-SBDE2E3GIRWXY/LB1

Departure

Time 2026-05-06 23:32
Airport Raleigh-Durham International Airport (KRDU)

Arrival

Time 2026-05-07 00:09
Airport Charlotte Douglas International Airport (KCLT)
Time Latitude Longitude Altitude Speed Heading
2026-05-06 23:04 35.87872 -78.79268 392 ft 0 kts 134°
2026-05-06 23:23 35.87874 -78.79271 392 ft 3 kts 134°
2026-05-06 23:24 35.87887 -78.79287 392 ft 3 kts 134°
2026-05-06 23:24 35.87899 -78.79306 392 ft 3 kts 112°
2026-05-06 23:24 35.87903 -78.79329 392 ft 3 kts 81°
2026-05-06 23:24 35.87896 -78.79351 392 ft 1 kts 49°
2026-05-06 23:26 35.87900 -78.79347 392 ft 3 kts 47°
2026-05-06 23:27 35.87960 -78.79267 392 ft 20 kts 45°
2026-05-06 23:27 35.88063 -78.79139 394 ft 21 kts 45°
2026-05-06 23:27 35.88171 -78.79008 393 ft 23 kts 45°
2026-05-06 23:27 35.88281 -78.78870 396 ft 22 kts 44°
2026-05-06 23:28 35.88390 -78.78734 395 ft 22 kts 45°
2026-05-06 23:28 35.88494 -78.78603 403 ft 21 kts 45°
2026-05-06 23:28 35.88595 -78.78476 405 ft 21 kts 45°
2026-05-06 23:28 35.88693 -78.78353 409 ft 20 kts 44°
2026-05-06 23:29 35.88797 -78.78230 408 ft 21 kts 44°
2026-05-06 23:29 35.88903 -78.78104 409 ft 22 kts 44°
2026-05-06 23:29 35.88990 -78.77950 409 ft 22 kts 71°
2026-05-06 23:29 35.89078 -78.77805 411 ft 21 kts 44°
2026-05-06 23:30 35.89181 -78.77683 414 ft 15 kts 43°
2026-05-06 23:30 35.89265 -78.77686 418 ft 12 kts 321°
2026-05-06 23:30 35.89312 -78.77739 421 ft 0 kts 317°
2026-05-06 23:31 35.89312 -78.77740 421 ft 1 kts 317°
2026-05-06 23:31 35.89347 -78.77788 415 ft 15 kts 298°
2026-05-06 23:31 35.89280 -78.77934 413 ft 41 kts 224°
2026-05-06 23:32 35.88909 -78.78398 410 ft 110 kts 225°
2026-05-06 23:32 35.88226 -78.79233 585 ft 152 kts 225°
2026-05-06 23:32 35.87498 -78.80135 1431 ft 150 kts 226°
2026-05-06 23:32 35.86712 -78.81034 2223 ft 158 kts 225°
2026-05-06 23:33 35.85872 -78.81973 2817 ft 176 kts 225°
2026-05-06 23:33 35.84944 -78.83034 3532 ft 186 kts 229°
2026-05-06 23:33 35.84033 -78.84258 4205 ft 201 kts 230°
2026-05-06 23:33 35.83054 -78.85572 4923 ft 216 kts 230°
2026-05-06 23:34 35.82121 -78.87095 5540 ft 231 kts 248°
2026-05-06 23:34 35.81848 -78.89122 5930 ft 251 kts 271°
2026-05-06 23:34 35.82011 -78.91284 6075 ft 257 kts 275°
2026-05-06 23:34 35.82189 -78.93439 7225 ft 246 kts 273°
2026-05-06 23:35 35.82325 -78.95574 8061 ft 253 kts 272°
2026-05-06 23:35 35.82428 -78.97709 9026 ft 253 kts 271°
2026-05-06 23:35 35.82511 -78.99891 9900 ft 257 kts 271°
2026-05-06 23:35 35.82591 -79.02127 10530 ft 268 kts 271°
2026-05-06 23:36 35.82673 -79.04502 10971 ft 285 kts 271°
2026-05-06 23:36 35.82759 -79.07006 11498 ft 295 kts 271°
2026-05-06 23:36 35.82848 -79.09582 11898 ft 304 kts 271°
2026-05-06 23:36 35.82937 -79.12184 11955 ft 301 kts 271°
2026-05-06 23:37 35.83024 -79.14715 11959 ft 298 kts 271°
2026-05-06 23:37 35.83110 -79.17267 11957 ft 299 kts 271°
2026-05-06 23:37 35.83196 -79.19825 11951 ft 298 kts 271°
2026-05-06 23:37 35.83280 -79.22362 11954 ft 298 kts 271°
2026-05-06 23:38 35.83365 -79.24933 12021 ft 304 kts 271°
2026-05-06 23:38 35.83450 -79.27505 12953 ft 300 kts 271°
2026-05-06 23:38 35.83627 -79.30090 13656 ft 305 kts 280°
2026-05-06 23:38 35.84159 -79.32622 14393 ft 306 kts 284°
2026-05-06 23:39 35.84764 -79.35121 15085 ft 309 kts 285°
2026-05-06 23:39 35.85384 -79.37656 15830 ft 309 kts 285°
2026-05-06 23:39 35.86004 -79.40198 16564 ft 310 kts 285°
2026-05-06 23:39 35.86628 -79.42762 17288 ft 312 kts 285°
2026-05-06 23:40 35.87254 -79.45339 18007 ft 315 kts 285°
2026-05-06 23:40 35.87883 -79.47935 18645 ft 317 kts 285°
2026-05-06 23:40 35.88515 -79.50549 19271 ft 319 kts 285°
2026-05-06 23:40 35.89153 -79.53189 19788 ft 325 kts 284°
2026-05-06 23:41 35.89808 -79.55905 19946 ft 331 kts 284°
2026-05-06 23:41 35.90447 -79.58555 19966 ft 322 kts 284°
2026-05-06 23:41 35.91081 -79.61187 19961 ft 320 kts 284°
2026-05-06 23:41 35.91716 -79.63833 19955 ft 323 kts 284°
2026-05-06 23:42 35.92354 -79.66491 19953 ft 322 kts 284°
2026-05-06 23:42 35.92989 -79.69139 19950 ft 320 kts 284°
2026-05-06 23:42 35.93619 -79.71772 19951 ft 321 kts 284°
2026-05-06 23:42 35.94252 -79.74419 19951 ft 321 kts 284°
2026-05-06 23:43 35.94885 -79.77066 19956 ft 320 kts 284°
2026-05-06 23:43 35.95495 -79.79672 19950 ft 319 kts 281°
2026-05-06 23:43 35.95576 -79.82391 19957 ft 319 kts 265°
2026-05-06 23:43 35.95211 -79.85092 19961 ft 320 kts 261°
2026-05-06 23:44 35.94754 -79.87790 19952 ft 320 kts 260°
2026-05-06 23:44 35.94279 -79.90476 19950 ft 319 kts 260°
2026-05-06 23:44 35.93802 -79.93154 19951 ft 319 kts 260°
2026-05-06 23:44 35.93326 -79.95826 19956 ft 319 kts 260°
2026-05-06 23:45 35.92847 -79.98505 19955 ft 319 kts 260°
2026-05-06 23:45 35.92368 -80.01178 19954 ft 319 kts 260°
2026-05-06 23:45 35.91888 -80.03849 19953 ft 318 kts 260°
2026-05-06 23:45 35.91408 -80.06521 19822 ft 321 kts 260°
2026-05-06 23:46 35.90929 -80.09183 19396 ft 320 kts 260°
2026-05-06 23:46 35.90450 -80.11834 18962 ft 313 kts 260°
2026-05-06 23:46 35.89978 -80.14444 18552 ft 311 kts 260°
2026-05-06 23:46 35.89507 -80.17048 18123 ft 311 kts 260°
2026-05-06 23:47 35.89035 -80.19643 17661 ft 307 kts 259°
2026-05-06 23:47 35.88445 -80.22162 17257 ft 302 kts 255°
2026-05-06 23:47 35.87811 -80.24581 16879 ft 300 kts 255°
2026-05-06 23:47 35.87162 -80.27039 16487 ft 301 kts 255°
2026-05-06 23:48 35.86514 -80.29492 16099 ft 299 kts 255°
2026-05-06 23:48 35.85871 -80.31927 15704 ft 298 kts 255°
2026-05-06 23:48 35.85228 -80.34361 15314 ft 299 kts 254°
2026-05-06 23:48 35.84586 -80.36791 14928 ft 297 kts 254°
2026-05-06 23:49 35.83945 -80.39217 14534 ft 298 kts 254°
2026-05-06 23:49 35.83084 -80.41519 14117 ft 297 kts 237°
2026-05-06 23:49 35.81640 -80.43331 13715 ft 295 kts 226°
2026-05-06 23:49 35.80093 -80.44908 13283 ft 290 kts 224°
2026-05-06 23:50 35.78530 -80.46432 12887 ft 282 kts 223°
2026-05-06 23:50 35.75486 -80.49367 12167 ft 275 kts 222°
2026-05-06 23:50 35.73741 -80.50426 11837 ft 282 kts 207°
2026-05-06 23:51 35.71891 -80.51242 11498 ft 279 kts 212°
2026-05-06 23:51 35.70429 -80.52662 11079 ft 264 kts 236°
2026-05-06 23:51 35.69470 -80.54531 10920 ft 254 kts 243°
2026-05-06 23:51 35.68599 -80.56429 10964 ft 264 kts 243°
2026-05-06 23:52 35.67675 -80.58395 10986 ft 263 kts 243°
2026-05-06 23:52 35.66757 -80.60331 10994 ft 261 kts 243°
2026-05-06 23:52 35.65841 -80.62261 10997 ft 262 kts 243°
2026-05-06 23:52 35.64923 -80.64192 10998 ft 261 kts 243°
2026-05-06 23:53 35.64007 -80.66116 11012 ft 260 kts 243°
2026-05-06 23:53 35.63092 -80.68036 11068 ft 261 kts 243°
2026-05-06 23:53 35.62189 -80.69928 10890 ft 253 kts 243°
2026-05-06 23:53 35.61309 -80.71770 10619 ft 246 kts 243°
2026-05-06 23:54 35.60452 -80.73563 10322 ft 240 kts 243°
2026-05-06 23:54 35.59618 -80.75311 10015 ft 235 kts 243°
2026-05-06 23:54 35.58794 -80.77034 9711 ft 232 kts 243°
2026-05-06 23:54 35.57978 -80.78741 9384 ft 231 kts 243°
2026-05-06 23:55 35.57164 -80.80447 9063 ft 232 kts 242°
2026-05-06 23:55 35.56348 -80.82150 8758 ft 230 kts 242°
2026-05-06 23:55 35.55535 -80.83846 8459 ft 231 kts 242°
2026-05-06 23:55 35.54725 -80.85537 8149 ft 231 kts 242°
2026-05-06 23:56 35.53920 -80.87215 7849 ft 228 kts 242°
2026-05-06 23:56 35.53116 -80.88892 7560 ft 228 kts 242°
2026-05-06 23:56 35.52312 -80.90567 7254 ft 227 kts 241°
2026-05-06 23:56 35.51579 -80.92263 7127 ft 222 kts 243°
2026-05-06 23:57 35.50672 -80.93818 7120 ft 225 kts 231°
2026-05-06 23:57 35.49423 -80.94886 7106 ft 220 kts 203°
2026-05-06 23:57 35.47919 -80.95230 7113 ft 222 kts 194°
2026-05-06 23:57 35.46379 -80.95364 7114 ft 226 kts 189°
2026-05-06 23:58 35.44796 -80.95376 7009 ft 230 kts 187°
2026-05-06 23:58 35.43191 -80.95317 6732 ft 230 kts 185°
2026-05-06 23:58 35.41597 -80.95221 6427 ft 229 kts 184°
2026-05-06 23:58 35.40001 -80.95099 6036 ft 230 kts 184°
2026-05-06 23:59 35.38396 -80.94961 5638 ft 232 kts 181°
2026-05-06 23:59 35.36884 -80.94123 5251 ft 253 kts 143°
2026-05-06 23:59 35.36030 -80.92234 5162 ft 259 kts 106°
2026-05-06 23:59 35.35965 -80.90035 4928 ft 259 kts 91°
2026-05-07 00:00 35.36046 -80.87846 4617 ft 261 kts 91°
2026-05-07 00:00 35.36148 -80.85657 4370 ft 256 kts 91°
2026-05-07 00:00 35.36548 -80.83540 4063 ft 258 kts 60°
2026-05-07 00:00 35.37774 -80.82036 4010 ft 247 kts 23°
2026-05-07 00:01 35.39399 -80.81505 4036 ft 244 kts
2026-05-07 00:01 35.41104 -80.81239 4025 ft 247 kts
2026-05-07 00:01 35.42776 -80.81063 3988 ft 234 kts 347°
2026-05-07 00:01 35.44199 -80.81772 3990 ft 209 kts 310°
2026-05-07 00:02 35.44909 -80.83180 3675 ft 192 kts 276°
2026-05-07 00:02 35.45066 -80.84774 3329 ft 190 kts 271°
2026-05-07 00:02 35.45182 -80.86386 3053 ft 187 kts 271°
2026-05-07 00:02 35.45297 -80.87908 3008 ft 177 kts 270°
2026-05-07 00:03 35.45433 -80.89401 3014 ft 177 kts 271°
2026-05-07 00:03 35.45555 -80.90926 3009 ft 181 kts 271°
2026-05-07 00:03 35.45440 -80.92408 3002 ft 173 kts 243°
2026-05-07 00:03 35.44608 -80.93425 3015 ft 172 kts 212°
2026-05-07 00:04 35.43532 -80.94108 3011 ft 177 kts 211°
2026-05-07 00:04 35.42334 -80.94534 3010 ft 184 kts 189°
2026-05-07 00:04 35.41054 -80.94553 3016 ft 184 kts 185°
2026-05-07 00:04 35.39775 -80.94483 3006 ft 185 kts 184°
2026-05-07 00:05 35.38492 -80.94400 2998 ft 181 kts 184°
2026-05-07 00:05 35.37254 -80.94328 3002 ft 182 kts 184°
2026-05-07 00:05 35.35974 -80.94285 2986 ft 181 kts 184°
2026-05-07 00:05 35.34720 -80.94237 2998 ft 177 kts 184°
2026-05-07 00:06 35.33539 -80.94156 2899 ft 167 kts 184°
2026-05-07 00:06 35.32383 -80.94079 2665 ft 162 kts 187°
2026-05-07 00:06 35.31345 -80.94260 2475 ft 143 kts 197°
2026-05-07 00:06 35.30381 -80.94332 2283 ft 136 kts 185°
2026-05-07 00:07 35.29471 -80.94223 2108 ft 133 kts 182°
2026-05-07 00:07 35.28537 -80.94131 1944 ft 136 kts 183°
2026-05-07 00:07 35.27589 -80.94053 1765 ft 135 kts 183°
2026-05-07 00:07 35.26655 -80.93976 1591 ft 135 kts 182°
2026-05-07 00:08 35.25703 -80.93896 1418 ft 141 kts 179°
2026-05-07 00:08 35.24714 -80.93804 1200 ft 143 kts 178°
2026-05-07 00:08 35.23725 -80.93721 1052 ft 143 kts 178°
2026-05-07 00:08 35.22739 -80.93634 844 ft 143 kts 179°
2026-05-07 00:09 35.21791 -80.93561 748 ft 112 kts 178°
2026-05-07 00:09 35.21170 -80.93504 743 ft 58 kts 176°
2026-05-07 00:09 35.20887 -80.93562 741 ft 17 kts 196°
2026-05-07 00:09 35.20870 -80.93569 741 ft 0 kts 200°
2026-05-07 00:10 35.20854 -80.93576 741 ft 8 kts 200°
2026-05-07 00:10 35.20803 -80.93597 740 ft 1 kts 193°
2026-05-07 00:10 35.20798 -80.93599 740 ft 2 kts 193°
2026-05-07 00:11 35.20775 -80.93603 740 ft 5 kts 186°
2026-05-07 00:11 35.20734 -80.93603 740 ft 8 kts 177°
2026-05-07 00:11 35.20692 -80.93624 739 ft 6 kts 245°
2026-05-07 00:11 35.20700 -80.93655 739 ft 9 kts 312°
2026-05-07 00:12 35.20793 -80.93689 740 ft 16 kts 348°
2026-05-07 00:12 35.20905 -80.93703 741 ft 15 kts 355°
2026-05-07 00:12 35.20935 -80.93690 741 ft 0 kts 34°
2026-05-07 00:12 35.20942 -80.93679 741 ft 5 kts 58°
2026-05-07 00:13 35.20992 -80.93619 742 ft 12 kts 16°
2026-05-07 00:13 35.21091 -80.93633 743 ft 20 kts 355°
2026-05-07 00:13 35.21261 -80.93646 744 ft 25 kts 355°
2026-05-07 00:13 35.21409 -80.93659 744 ft 21 kts 358°
2026-05-07 00:14 35.21552 -80.93686 744 ft 21 kts 333°
2026-05-07 00:14 35.21657 -80.93806 744 ft 21 kts 311°
2026-05-07 00:14 35.21758 -80.93928 743 ft 21 kts 319°
2026-05-07 00:14 35.21847 -80.94044 743 ft 16 kts 291°
2026-05-07 00:15 35.21864 -80.94167 743 ft 9 kts 257°
2026-05-07 00:15 35.21861 -80.94181 741 ft 0 kts 253°